Regional Weather Roundup
Issued by NWS

Home | Current Version | Previous Version | Graphics & Text | Print | Product List | Glossary On
Versions: 1 2 3 4 5 6 7 8 9 10 11 12 13 14 15 16 17 18 19 20 21 22 23 24 25 26 27 28 29 30 31 32 33 34 35 36 37 38 39 40 41 42 43 44 45 46 47 48 49 50
000
ASUS43 KMPX 200210
RWRMN
WEATHER ROUNDUP FOR MINNESOTA
NATIONAL WEATHER SERVICE TWIN CITIES/CHANHASSEN MN
800 PM CST THU JAN 19 2017


NOTE: "FAIR" INDICATES FEW OR NO CLOUDS BELOW 12,000 FEET WITH NO
SIGNIFICANT WEATHER AND/OR OBSTRUCTIONS TO VISIBILITY. N/A MEANS
CURRENT SKY AND/OR WEATHER CONDITIONS ARE NOT AVAILABLE.

MNZ060>063-068>070-200300-
   Twin Cities Metro

CITY           SKY/WX    TMP DP  RH WIND       PRES   REMARKS
TWIN CITIES    CLOUDY    36  31  82 SE7       29.73F
ST PAUL        CLOUDY    37  33  85 E3        29.74F
CRYSTAL        CLOUDY    37  30  75 E3        29.72F
BLAINE         CLOUDY    37  34  87 CALM      29.73F
LAKEVILLE      CLOUDY    32  32 100 CALM      29.73S
EDEN PRAIRIE   CLOUDY    38  32  79 E6        29.72F
SOUTH ST PAUL  CLOUDY    37  33  85 CALM      29.73F
LAKE ELMO      CLOUDY    36  32  87 CALM      29.75S
$$
MNZ001>005-007-008-013>017-022>024-027-028-200300-
   Northwest Minnesota

CITY           SKY/WX    TMP DP  RH WIND       PRES   REMARKS
BEMIDJI        CLOUDY    39  37  93 S7        29.62S
HALLOCK        FOG       34  32  93 S13       29.55S VSB 1/4 WCI  25
ROSEAU         CLOUDY    32  28  86 S6        29.56S FOG     WCI  26
WARROAD        CLOUDY    34  28  80 S6        29.57S WCI  29
THIEF RVR FALL CLEAR     34  33  96 S12       29.57F WCI  25
CROOKSTON      PTCLDY    36  34  93 S23       29.58S
FOSSTON        CLEAR     37  36  93 S12       29.58F
DETROIT LAKES  CLOUDY    36  36 100 S16       29.63S FOG
MOORHEAD       FOG       34  34 100 S16       29.61S VSB 1/2 WCI  23
PARK RAPIDS    FOG       36  34  92 S12       29.65R VSB 1/4
MAHNOMEN       FAIR      36  34  92 S9        29.59S
$$
MNZ006-009>011-018-025>026-200300-
   North Central Minnesota

CITY           SKY/WX    TMP DP  RH WIND       PRES   REMARKS
BAUDETTE       CLOUDY    32  30  92 SE7       29.58S WCI  26
FLAG ISLAND    CLOUDY    27  25  93 SE8       29.57S FOG     WCI  18
INTL FALLS     CLEAR     37  34  89 VRB6      29.63S FOG
WASKISH        CLEAR     39  37  93 S8        29.60F
BIG FORK       CLEAR     37  36  93 S10       29.66S
LONGVILLE      CLOUDY    37  36  93 S6        29.67F FOG
CRANE LAKE     CLEAR     34  34 100 S3        29.69S FOG
ORR            CLEAR     36  32  87 S8        29.65S
COOK           CLEAR     36  36 100 S5        29.69R
WALKER         CLOUDY    38  35  90 S9        29.64F
$$
MNZ012-019>021-037-200300-
   Northeast Minnesota

CITY           SKY/WX    TMP DP  RH WIND       PRES   REMARKS
DULUTH         CLEAR     34  32  92 SE7       29.73F WCI  28
ELY            CLEAR     37  36  93 S7        29.69S
HIBBING        FOG       27  27 100 CALM      29.69F VSB 1
EVELETH          N/A     28  27  99 CALM      29.72S FOG
DULUTH HARBOR  PTCLDY    34  32  93 CALM      29.76F FOG
TWO HARBORS    CLEAR     30  27  86 CALM      29.73F HAZE
SILVER BAY     FOG       28  28 100 CALM      29.73S VSB 1/2
GRAND MARAIS     N/A     31  29  92 CALM      29.77S
G MARAIS ARPRT FOG       28  25  86 CALM      29.73F VSB 1/4
$$
MNZ029>031-032-039>041-046>048-054>057-064-200300-
   West Central Minnesota

CITY           SKY/WX    TMP DP  RH WIND       PRES   REMARKS
FERGUS FALLS   FOG       36  36 100 S13       29.68S VSB 1/2
WHEATON        FOG       41  41 100 SE13      29.64S VSB 1
MORRIS         MIX PCPN  36  34  93 SE17      29.63F VSB<1/4
ALEXANDRIA     FOG       34  34 100 SE13      29.67S VSB 1/4 WCI  25
ELBOW LAKE     LGT RAIN  34  34 100 E14       29.64S VSB 1/2 WCI  25
WADENA         FOG       34  34 100 S8        29.66F VSB 1/2 WCI  27
GLENWOOD       FOG       34  34 100 SE8       29.68F VSB 1/4 WCI  27
APPLETON       FOG       36  36 100 SE9       29.64F VSB 3/4
BENSON         CLOUDY    37  34  87 S9G17       N/A
ORTONVILLE     CLOUDY    36  34  93 SE13      29.62F FOG
MADISON        CLOUDY    37  37 100 SE12      29.63F FOG
WILLMAR        CLOUDY    36  36 100 CALM      29.70F FOG
$$
MNZ033>034-036-042>043-049>051-058-059-200300-
   Central Minnesota

CITY           SKY/WX    TMP DP  RH WIND       PRES   REMARKS
ST CLOUD       CLOUDY    36  33  89 SE7       29.71S
SAUK CENTRE    FOG       33  33 100 SE6       29.69F VSB 3/4 WCI  27
PAYNESVILLE    CLOUDY    35  35 100 SE3       29.70S
AITKIN         CLEAR     39  30  70 SE6       29.68F
PINE RIVER     MOCLDY    36  36 100 S6        29.72S FOG
BRAINERD       CLEAR     34  32  92 S5        29.69F FOG     WCI  30
STAPLES        SNOW      34  34 100 S6        29.67F VSB 1/2 WCI  29
LONG PRAIRIE   SNOW      32  32 100 SE6       29.69F VSB 1/4 WCI  26
LITTLE FALLS   CLOUDY    32  32 100 CALM      29.72R FOG
LITCHFIELD     CLOUDY    36  34  93 SE3       29.71S
BUFFALO        MOCLDY    36  32  86 E3        29.72F
MAPLE LAKE     CLOUDY    37  34  89 SE3       29.71F
HUTCHINSON     CLOUDY    36  34  93 E9        29.70F
$$
MNZ037-044-045-052-053-200300-
   East Central Minnesota

CITY           SKY/WX    TMP DP  RH WIND       PRES   REMARKS
PRINCETON      CLOUDY    37  34  87 CALM      29.72F
MORA           CLOUDY    34  30  86 CALM      29.75F
CAMBRIDGE      CLOUDY    37  30  75 CALM      29.72F
RUSH CITY      CLOUDY    36  32  87 SE3       29.74F
MOOSE LAKE     CLOUDY    37  32  81 S3        29.72S
HINCKLEY       CLOUDY    37  32  81 S3        29.74F
CLOQUET        MOCLDY    36  30  80 SE3       29.73S
MCGREGOR       PTCLDY    36  32  87 SE9       29.71F
$$
MNZ071>073-080-081-089-090-097-098-200300-
   Southwest Minnesota

CITY           SKY/WX    TMP DP  RH WIND       PRES   REMARKS
MONTEVIDEO     FOG       34  34 100 S9        29.68S VSB 1/4 WCI  26
GRANITE FALLS  CLOUDY    37  36  98 E6        29.68F FOG
CANBY          CLOUDY    37  36  97 CALM      29.63F FOG
MARSHALL       CLOUDY    36  35  96 SE13      29.65F FOG
REDWOOD FALLS  CLOUDY    34  32  92 SE7       29.68S FOG     WCI  28
OLIVIA         CLOUDY    34  32  93 E3        29.69S FOG
PIPESTONE      FOG       36  36 100 SE10      29.62S VSB 1/4
WINDOM         CLOUDY    36  36 100 SE7       29.67F FOG
WORTHINGTON    LGT RAIN  34  34 100 SE7       29.67S VSB 1/2 WCI  28
JACKSON        CLOUDY    34  34 100 SE6       29.68F FOG     WCI  29
TRACY          CLOUDY    37  37  99 SE7       29.66R FOG
SLAYTON        FOG       34  34 100 SE9       29.66S VSB 1/4 WCI  27
$$
MNZ065>067-074>077-082>085-091>093-200300-
   South Central Minnesota

CITY           SKY/WX    TMP DP  RH WIND       PRES   REMARKS
MANKATO        MIX PCPN  34  32  93 SE6       29.71F FOG     WCI  29
NEW ULM        CLOUDY    36  34  93 SE7       29.70R
ST JAMES       CLOUDY    36  34  93 SE8       29.70S
FAIRMONT       CLOUDY    34  33  96 SE8       29.70S FOG     WCI  27
GLENCOE        CLOUDY    36  35  97 E6        29.70F
FARIBAULT      RAIN      36  34  93 S3        29.73S
OWATONNA       DRIZZLE   36  34  93 SE7       29.72S
WASECA         CLOUDY    34  32  93 SE5       29.73F FOG     WCI  30
ALBERT LEA     CLOUDY    36  36 100 SE5       29.70F FOG
$$
MNZ078>079-086>088-094>096-200300-
   Southeast Minnesota

CITY           SKY/WX    TMP DP  RH WIND       PRES   REMARKS
ROCHESTER      CLOUDY    34  33  96 E7        29.72F WCI  28
RED WING       CLOUDY    37  32  81 SE9       29.74F
STANTON        CLOUDY    38  32  78 CALM      29.71F
DODGE CENTER   DRIZZLE   34  34 100 CALM      29.71F
WINONA         CLOUDY    34  32  93 CALM      29.77F FOG
AUSTIN         LGT RAIN  36  32  87 E7        29.71F
PRESTON        LGT RAIN  34  32  94 SE7       29.73F WCI  27
$$
ABBREVIATIONS USED IN REMARKS
   TC - TEMPERATURES IN CELSIUS
  WCI - WIND CHILL INDEX
   HX - HEAT INDEX
  VSB - VISIBILITY
$$




USA.gov is the U.S. government's official web portal to all federal, state and local government web resources and services.